This is the latest recevied weather packets stored in our database for station/object W4SNA-3. If no packets are shown the sender has not sent any weather packets the latest 1 day(s).
| Time | Temp. | Humidity | Pressure | Rain* | Wind** | Luminosity | Snow |
|---|---|---|---|---|---|---|---|
| 1778012066 | 21.11° C | 43% | 1012.9 hPa | 0 mm | 0 m/s | - | - |
| 1778011693 | 21.67° C | 43% | 1013 hPa | 0 mm | 0 m/s | - | - |
| 1778011406 | 21.11° C | 47% | 1013 hPa | 0 mm | 0 m/s | - | - |
| 1778011095 | 21.11° C | 44% | 1013.1 hPa | 0 mm | 0.45 m/s, 279° | - | - |
| 1778010792 | 21.11° C | 42% | 1013.1 hPa | 0 mm | 0 m/s | - | - |
| 1778010492 | 21.67° C | 43% | 1013.4 hPa | 0 mm | 0.45 m/s, 239° | - | - |
| 1778010194 | 21.67° C | 44% | 1013.2 hPa | 0 mm | 0 m/s | - | - |
| 1778009892 | 21.67° C | 43% | 1013.4 hPa | 0 mm | 0.45 m/s, 246° | - | - |
| 1778009592 | 22.22° C | 42% | 1013.5 hPa | 0 mm | 0.45 m/s, 241° | - | - |
| 1778009174 | 21.67° C | 43% | 1013.6 hPa | 0 mm | 0.45 m/s, 296° | - | - |
| 1778008874 | 21.67° C | 46% | 1013.6 hPa | 0 mm | 0 m/s | - | - |
| 1778008574 | 21.11° C | 46% | 1013.7 hPa | 0 mm | 0.45 m/s, 105° | - | - |
| 1778008244 | 21.11° C | 47% | 1013.7 hPa | 0 mm | 0 m/s | - | - |
| 1778007943 | 21.11° C | 41% | 1013.7 hPa | 0 mm | 0.45 m/s, 166° | - | - |
| 1778007644 | 21.11° C | 44% | 1013.8 hPa | 0 mm | 0 m/s | - | - |
| 1778007344 | 21.11° C | 43% | 1013.9 hPa | 0 mm | 0 m/s | - | - |
| 1778007043 | 21.11° C | 43% | 1014.1 hPa | 0 mm | 0 m/s | - | - |
| 1778006743 | 21.11° C | 45% | 1014 hPa | 0 mm | 0 m/s | - | - |
| 1778006444 | 21.11° C | 43% | 1014.3 hPa | 0 mm | 0 m/s | - | - |
| 1778006144 | 21.67° C | 40% | 1014.3 hPa | 0 mm | 0.45 m/s, 127° | - | - |
| 1778005846 | 21.67° C | 41% | 1014.2 hPa | 0 mm | 0.45 m/s, 263° | - | - |
| 1778005543 | 21.67° C | 45% | 1014.2 hPa | 0 mm | 0 m/s | - | - |
| 1778005243 | 21.67° C | 46% | 1014.4 hPa | 0 mm | 0 m/s | - | - |
| 1778004899 | 22.22° C | 45% | 1014.6 hPa | 0 mm | 0 m/s | - | - |
| 1778004603 | 22.22° C | 45% | 1013.7 hPa | 0 mm | 0 m/s | - | - |
* Rain latest hour (hover to see other rain measurements)
** Current wind speed in m/s (hover to see current wind gust speed)